Location: Most
(50.5133°N, 13.6207°E)
Time: 19:23:55
(UTC+02:00)

ISS - Pass Details

Date: 17 May 2019
Orbit: 407 x 410 km, 51.6° (Epoch: 23 May)

Event Time Altitude Azimuth Distance (km) Brightness Sun altitude
Rises 03:46:22 0° 286° (WNW) 2,341 -0.2 -11.4°
Reaches altitude 10° 03:48:29 10° 282° (WNW) 1,478 -1.3 -11.2°
Maximum altitude 03:51:44 53° 204° (SSW) 513 -3.7 -10.9°
Drops below altitude 10° 03:54:57 10° 127° (SE) 1,473 -0.9 -10.5°
Sets 03:57:04 0° 122° (ESE) 2,333 0.2 -10.3°
